{"data":{"norad_id":68720,"epoch":"2026-05-25T04:00:03.998880Z","epoch_age_seconds":70706,"freshness":"FRESH","line1":"1 68720U 26081X   26145.16671295  .00092285  00000+0  16511-2 0  9996","line2":"2 68720  53.1596  39.0551 0001175  84.1299 113.2376 15.49251838  6010","mean_motion":15.49251838,"eccentricity":0.0001175,"inclination_deg":53.1596,"raan_deg":39.0551,"arg_perigee_deg":84.1299,"mean_anomaly_deg":113.2376,"bstar":0.0016511,"rev_number":601,"period_min":92.948090470492,"perigee_km":418.1148153826,"apogee_km":419.71212224277,"semimajor_km":6797.0504688127,"source":"CELESTRAK","updated_at":"2026-05-25T13:38:22.002276Z"}}